Stations météo

réclame
Mon MeteoGroup
F3, Pays-Bas (6239): Température de l'air & dewpoint: 04.12.2019 07:00:00 - 10.12.2019 07:00:00 (CET)F3, Pays-Bas (6239): Vitesse du vent & gusts: 04.12.2019 07:00:00 - 10.12.2019 07:00:00 (CET)F3, Pays-Bas (6239): Direction du vent: 04.12.2019 07:00:00 - 10.12.2019 07:00:00 (CET)F3, Pays-Bas (6239): reduced air pressure: 04.12.2019 07:00:00 - 10.12.2019 07:00:00 (CET)F3, Pays-Bas (6239): visibility: 04.12.2019 07:00:00 - 10.12.2019 07:00:00 (CET)
Date & Time tt [°C] td [°C] ff [km/h] ff [knt] fx [km/h] fx [knt] dd ppp [hPa] vv [km]
10.12.2019 07:00:00 8,0 -1,0 31 17 - - - - 10
10.12.2019 06:00:00 7,4 -0,2 18 10 22 12 - 1018,4 10
10.12.2019 05:00:00 7,3 -1,6 22 12 32 18 - 1018,9 10
10.12.2019 04:00:00 7,3 -2,9 28 15 36 19 - 1019,0 10
10.12.2019 03:00:00 7,1 -1,4 35 19 40 21 - 1018,9 10
10.12.2019 02:00:00 7,1 -3,5 41 22 43 23 - 1018,1 10
10.12.2019 01:00:00 7,1 -1,9 44 24 50 27 - 1017,5 10
10.12.2019 00:00:00 6,8 -1,2 54 29 61 33 - 1016,7 10
09.12.2019 23:00:00 7,3 0,0 54 29 58 31 - 1016,0 10
09.12.2019 22:00:00 5,4 0,7 61 33 72 39 - 1015,1 10
09.12.2019 21:00:00 7,1 -0,2 65 35 72 39 - 1013,7 10
09.12.2019 20:00:00 7,3 -3,6 68 37 76 41 - 1012,1 10
09.12.2019 19:00:00 7,1 -2,0 72 39 86 47 - 1010,7 10
09.12.2019 18:00:00 6,8 0,9 72 39 86 47 - 1008,9 10
09.12.2019 17:00:00 7,5 -1,4 68 37 83 45 - 1006,9 10
09.12.2019 16:00:00 7,6 -0,1 68 37 79 43 - 1005,2 10
09.12.2019 15:00:00 7,6 0,3 81 44 86 47 - 1002,9 10
09.12.2019 14:00:00 8,0 0,8 65 35 76 41 - 1001,0 10
09.12.2019 13:00:00 - - 61 33 76 41 - 999,4 10
09.12.2019 12:00:00 - - 57 31 65 35 - 996,8 10
09.12.2019 11:00:00 - - 39 21 61 33 - 994,8 10
09.12.2019 10:00:00 - - 39 21 61 33 - 992,1 10
09.12.2019 09:00:00 - - 37 20 50 27 - 990,0 10
09.12.2019 08:00:00 - - 46 25 50 27 - 988,2 10
09.12.2019 07:00:00 - - 50 27 61 33 - 987,1 10
09.12.2019 06:00:00 - - 54 29 61 33 - 986,0 10
09.12.2019 05:00:00 - - 61 33 65 35 - 985,2 10
09.12.2019 04:00:00 - - 67 36 68 37 - 984,9 10
09.12.2019 03:00:00 - - 70 38 72 39 - 984,6 10
09.12.2019 02:00:00 - - 68 37 72 39 - 984,8 10
09.12.2019 01:00:00 - - 65 35 76 41 - 985,3 10
09.12.2019 00:00:00 - - 67 36 72 39 - 984,9 10
08.12.2019 23:00:00 - - 76 41 72 39 - 985,0 10
08.12.2019 22:00:00 - - 72 39 79 43 - 984,9 10
08.12.2019 21:00:00 - - 78 42 79 43 - 985,4 10
08.12.2019 20:00:00 - - 78 42 79 43 - 985,9 10
08.12.2019 19:00:00 - - 80 43 86 47 - 985,9 10
08.12.2019 18:00:00 - - 70 38 94 51 - 986,1 10
08.12.2019 17:00:00 - - 72 39 79 43 - 986,8 10
08.12.2019 16:00:00 - - 76 41 79 43 - 987,4 10
08.12.2019 15:00:00 - - 78 42 83 45 - 987,3 10
08.12.2019 14:00:00 - - 76 41 79 43 - 987,6 10
08.12.2019 13:00:00 - - 78 42 79 43 - 987,7 10
08.12.2019 12:00:00 - - 74 40 76 41 - 987,9 10
08.12.2019 11:00:00 - - 76 41 79 43 - 987,2 10
08.12.2019 10:00:00 - - 74 40 76 41 - 986,8 10
08.12.2019 09:00:00 - - 76 41 79 43 - 986,3 10
08.12.2019 08:00:00 - - 83 45 90 49 - 986,4 9
08.12.2019 07:00:00 - - 87 47 90 49 - 986,6 7
08.12.2019 06:00:00 - - 85 46 86 47 - 987,8 10
08.12.2019 05:00:00 - - 78 42 79 43 - 989,6 4,8
08.12.2019 04:00:00 - - 83 45 83 45 - 991,0 10
08.12.2019 03:00:00 - - 72 39 76 41 - 993,1 10
08.12.2019 02:00:00 - - 70 38 76 41 - 995,1 10
08.12.2019 01:00:00 - - 65 35 68 37 - 997,1 10
08.12.2019 00:00:00 - - 65 35 68 37 - 999,1 10
07.12.2019 23:00:00 - - 63 34 65 35 - 1000,5 10
07.12.2019 22:00:00 - - 61 33 61 33 - 1002,3 10
07.12.2019 21:00:00 - - 57 31 58 31 - 1003,6 10
07.12.2019 20:00:00 - - 55 30 54 29 - 1004,5 10
07.12.2019 19:00:00 - - 46 25 43 23 - 1005,3 10
07.12.2019 18:00:00 - - 44 24 43 23 - 1005,7 10
07.12.2019 17:00:00 - - 41 22 43 23 - 1006,0 10
07.12.2019 16:00:00 - - 46 25 50 27 - 1005,9 10
07.12.2019 15:00:00 - - 41 22 47 25 - 1005,7 10
07.12.2019 14:00:00 - - 37 20 40 21 - 1005,8 10
07.12.2019 13:00:00 - - 31 17 36 19 - 1005,7 10
07.12.2019 12:00:00 - - 35 19 40 21 - 1005,7 10
07.12.2019 11:00:00 - - 39 21 43 23 - 1005,6 10
07.12.2019 10:00:00 - - 41 22 43 23 - 1005,2 10
07.12.2019 09:00:00 - - 44 24 50 27 - 1004,6 10
07.12.2019 08:00:00 - - 37 20 36 19 - 1003,8 10
07.12.2019 07:00:00 - - 35 19 36 19 - 1002,6 10
07.12.2019 06:00:00 - - 35 19 40 21 - 1001,7 10
07.12.2019 05:00:00 - - 42 23 47 25 - 1000,8 10
07.12.2019 04:00:00 - - 55 30 58 31 - 999,9 10
07.12.2019 03:00:00 - - 59 32 61 33 - 998,7 10
07.12.2019 02:00:00 - - 57 31 58 31 - 997,3 10
07.12.2019 01:00:00 - - 52 28 54 29 - 996,7 10
07.12.2019 00:00:00 - - 57 31 58 31 - 996,0 10
06.12.2019 23:00:00 - - 59 32 65 35 - 994,8 10
06.12.2019 22:00:00 - - 54 29 58 31 - 994,4 10
06.12.2019 21:00:00 - - 50 27 54 29 - 994,1 10
06.12.2019 20:00:00 - - 50 27 50 27 - 993,7 10
06.12.2019 19:00:00 - - 50 27 54 29 - 993,1 10
06.12.2019 18:00:00 - - 52 28 54 29 - 993,1 10
06.12.2019 17:00:00 - - 59 32 61 33 - 993,0 10
06.12.2019 16:00:00 - - 55 30 58 31 - 993,1 10
06.12.2019 15:00:00 - - 57 31 58 31 - 993,6 10
06.12.2019 14:00:00 - - 55 30 58 31 - 994,4 8
06.12.2019 13:00:00 - - 54 29 54 29 - 995,4 8
06.12.2019 12:00:00 - - 55 30 54 29 - 996,4 10
06.12.2019 11:00:00 - - 50 27 50 27 - 997,7 10
06.12.2019 10:00:00 - - 50 27 54 29 - 998,2 10
06.12.2019 09:00:00 - - 50 27 54 29 - 998,7 10
06.12.2019 08:00:00 - - 54 29 54 29 - 999,0 10
06.12.2019 07:00:00 - - 55 30 54 29 - 999,1 10
06.12.2019 06:00:00 - - 55 30 61 33 - 999,2 10
06.12.2019 05:00:00 - - 67 36 72 39 - 998,9 10
06.12.2019 04:00:00 - - 74 40 76 41 - 998,8 10
06.12.2019 03:00:00 - - 70 38 86 47 - 998,5 10
06.12.2019 02:00:00 - - 80 43 86 47 - 998,2 10
06.12.2019 01:00:00 - - 81 44 83 45 - 999,0 7
06.12.2019 00:00:00 - - 81 44 86 47 - 999,7 10
05.12.2019 23:00:00 - - 87 47 86 47 - 1000,1 10
05.12.2019 22:00:00 - - 81 44 86 47 - 1001,0 8
05.12.2019 21:00:00 - - 80 43 83 45 - 1002,3 10
05.12.2019 20:00:00 - - 81 44 83 45 - 1003,4 10
05.12.2019 19:00:00 - - 76 41 76 41 - 1004,6 10
05.12.2019 18:00:00 - - 72 39 72 39 - 1006,3 10
05.12.2019 17:00:00 - - 65 35 68 37 - 1007,7 10
05.12.2019 16:00:00 - - 59 32 61 33 - 1008,9 10
05.12.2019 15:00:00 - - 63 34 61 33 - 1009,7 10
05.12.2019 14:00:00 - - 61 33 61 33 - 1010,8 10
05.12.2019 13:00:00 - - 57 31 58 31 - 1011,9 10
05.12.2019 12:00:00 - - 57 31 58 31 - 1012,8 10
05.12.2019 11:00:00 - - 52 28 54 29 - 1013,6 10
05.12.2019 10:00:00 - - 54 29 50 27 - 1013,8 10
05.12.2019 09:00:00 - - 50 27 50 27 - 1013,8 10
05.12.2019 08:00:00 - - 55 30 54 29 - 1013,6 10
05.12.2019 07:00:00 - - 48 26 47 25 - 1013,9 10
05.12.2019 06:00:00 - - 48 26 50 27 - 1014,2 10
05.12.2019 05:00:00 - - 52 28 50 27 - 1014,5 10
05.12.2019 04:00:00 - - 50 27 50 27 - 1014,4 10
05.12.2019 03:00:00 - - 54 29 50 27 - 1014,9 10
05.12.2019 02:00:00 - - 50 27 47 25 - 1015,4 10
05.12.2019 01:00:00 - - 52 28 50 27 - 1016,0 10
05.12.2019 00:00:00 - - 50 27 50 27 - 1016,3 10
04.12.2019 23:00:00 - - 46 25 47 25 - 1016,5 10
04.12.2019 22:00:00 - - 50 27 50 27 - 1016,3 10
04.12.2019 21:00:00 - - 48 26 47 25 - 1017,0 10
04.12.2019 20:00:00 - - 46 25 47 25 - 1017,1 10
04.12.2019 19:00:00 - - 46 25 43 23 - 1016,9 10
04.12.2019 18:00:00 - - 46 25 43 23 - 1017,0 10
04.12.2019 17:00:00 - - 46 25 47 25 - 1016,9 10
04.12.2019 16:00:00 - - 46 25 47 25 - 1016,9 10
04.12.2019 15:00:00 - - 42 23 43 23 - 1017,0 10
04.12.2019 14:00:00 - - 42 23 43 23 - 1017,3 10
04.12.2019 13:00:00 - - 42 23 43 23 - 1017,7 10
04.12.2019 12:00:00 - - 42 23 40 21 - 1018,1 10
04.12.2019 11:00:00 - - 41 22 43 23 - 1018,2 10
04.12.2019 10:00:00 - - 39 21 43 23 - 1018,0 10
04.12.2019 09:00:00 - - 35 19 36 19 - 1017,8 10
04.12.2019 08:00:00 - - 37 20 36 19 - 1017,9 10
04.12.2019 07:00:00 - - 34 18 36 19 - 1018,2 10

tt = Température de l'air
td = dewpoint
ff = Vitesse du vent
fx = gusts
dd = Direction du vent
ppp = reduced air pressure
vv = visibility

stations d'obs. à proximité